Oakland, CA

6:54 AM PST on November 22, 2017 (GMT -0800)
Metro Oakland International

Weather History for KOAK - February, 2013

Change the Weather History Date:

Saturday, February 2, 2013

  Actual Average Record
Temperature  
Mean Temperature 52 °F 51 °F  
Max Temperature 60 °F 59 °F 69 °F (2005)
Min Temperature 43 °F 43 °F 30 °F (1949)
Degree Days  
Heating Degree Days 13 14  
Month to date heating degree days 24 28  
Since 1 July heating degree days 1561 1687  
Cooling Degree Days 0 0  
Month to date cooling degree days 0 0  
Year to date cooling degree days 0 0  
Growing Degree Days 4 (Base 50)    
Moisture  
Dew Point 51 °F    
Average Humidity 88    
Maximum Humidity 100    
Minimum Humidity 75    
Precipitation  
Precipitation 0.00 in 0.10 in 1.19 in (1958)
Month to date precipitation 0.00 0.20  
Year to date precipitation 0.29 4.19  
Since 1 July precipitation 11.28  
Sea Level Pressure  
Sea Level Pressure 30.27 in    
Wind  
Wind Speed 4 mph (WNW)    
Max Wind Speed 10 mph    
Max Gust Speed 14 mph    
Visibility 7 miles    
Events      
T = Trace of Precipitation, MM = Missing Value Source: NWS Daily Summary

Daily Weather History Graph

Daily Weather History Graph

Search for Another Location

Airport or City:

Trip Planner

Search our weather history database for the weather conditions in past years. The results will help you decide how hot, cold, wet, or windy it might be!

Date:

Astronomy

Feb. 02, 2013 Rise Set
Actual Time 7:11 AM PST 5:34 PM PST
Civil Twilight 6:44 AM PST 6:01 PM PST
Nautical Twilight 6:12 AM PST 6:33 PM PST
Astronomical Twilight 5:42 AM PST 7:03 PM PST
Moon No Moon Rise 10:34 AM PST (2/2)
Length of Visible Light 11h 17m
Length of Day
10h 22m
Waning Gibbous, 58% of the Moon is Illuminated
Feb 2
Waning Gibbous
Feb 3
Last Quarter
Feb 9
New
Feb 17
First Quarter
Feb 25
Full

Hourly Weather History & Observations

Time (PST) Temp. Dew Point Humidity Pressure Visibility Wind Dir Wind Speed Gust Speed Precip Events Conditions
12:53 AM 50.0 °F 50.0 °F 100% 30.24 in 7.0 mi Calm Calm - N/A   Mostly Cloudy
1:53 AM 50.0 °F 50.0 °F 100% 30.26 in 7.0 mi North 3.5 mph - N/A   Mostly Cloudy
2:53 AM 50.0 °F 50.0 °F 100% 30.26 in 7.0 mi NNW 3.5 mph - N/A   Mostly Cloudy
3:53 AM 50.0 °F 50.0 °F 100% 30.24 in 7.0 mi North 4.6 mph - N/A   Mostly Cloudy
4:53 AM 50.0 °F 50.0 °F 100% 30.25 in 7.0 mi NW 4.6 mph - N/A   Mostly Cloudy
5:21 AM 50.0 °F 50.0 °F 100% 30.25 in 7.0 mi Calm Calm - N/A   Mostly Cloudy
5:53 AM 51.1 °F 51.1 °F 100% 30.25 in 7.0 mi Calm Calm - N/A   Overcast
6:08 AM 50.0 °F 50.0 °F 100% 30.25 in 7.0 mi WNW 3.5 mph - N/A   Overcast
6:53 AM 52.0 °F 52.0 °F 100% 30.27 in 6.0 mi NNW 3.5 mph - N/A   Overcast
7:53 AM 52.0 °F 52.0 °F 100% 30.29 in 4.0 mi NW 4.6 mph - N/A   Overcast
8:53 AM 53.1 °F 52.0 °F 96% 30.31 in 3.0 mi Calm Calm - N/A   Overcast
9:53 AM 54.0 °F 53.1 °F 97% 30.31 in 3.0 mi Calm Calm - N/A   Overcast
10:53 AM 54.0 °F 53.1 °F 97% 30.32 in 4.0 mi West 6.9 mph - N/A   Overcast
11:53 AM 57.0 °F 53.1 °F 87% 30.31 in 65.0 mi WNW 6.9 mph - N/A   Mostly Cloudy
12:07 PM 57.2 °F 51.8 °F 82% 30.30 in 6.0 mi WNW 6.9 mph - N/A   Haze
12:53 PM 57.9 °F 52.0 °F 81% 30.27 in 7.0 mi WNW 6.9 mph - N/A   Mostly Cloudy
1:53 PM 59.0 °F 53.1 °F 81% 30.25 in 7.0 mi WNW 8.1 mph - N/A   Mostly Cloudy
2:53 PM 59.0 °F 52.0 °F 78% 30.25 in 7.0 mi WNW 8.1 mph - N/A   Mostly Cloudy
3:53 PM 57.0 °F 52.0 °F 83% 30.25 in 5.0 mi WSW 3.5 mph - N/A   Haze
4:53 PM 57.0 °F 52.0 °F 83% 30.25 in 10.0 mi SW 6.9 mph - N/A   Mostly Cloudy
5:53 PM 55.0 °F 53.1 °F 93% 30.25 in 10.0 mi West 10.4 mph - N/A   Mostly Cloudy
6:53 PM 53.1 °F 52.0 °F 96% 30.25 in 10.0 mi WNW 4.6 mph - N/A   Scattered Clouds
7:53 PM 53.1 °F 53.1 °F 100% 30.26 in 10.0 mi WSW 4.6 mph - N/A   Scattered Clouds
8:53 PM 52.0 °F 52.0 °F 100% 30.26 in 10.0 mi West 5.8 mph - N/A   Scattered Clouds
9:53 PM 51.1 °F 51.1 °F 100% 30.25 in 10.0 mi NW 4.6 mph - N/A   Partly Cloudy
10:53 PM 48.9 °F 48.9 °F 100% 30.26 in 10.0 mi Calm Calm - N/A   Partly Cloudy
11:53 PM 48.0 °F 48.0 °F 100% 30.27 in 10.0 mi Calm Calm - N/A   Scattered Clouds